STARLINK-11504, 62274

Orbit data source: Space-Track

STARLINK-11504, 62274 is a payload satellite owned by SpaceX/Seattle (US) in LEO that was launched on Sun, 08 Dec 2024 UTC via an FALCON 9 launch vehicle from the Air Force Eastern Test Range (AFETR). Payload-class satellites include a variety of spacecraft equipped with specific instruments for various scientific and technological missions. These include communications satellites like Starlink; space stations such as the ISS; scientific satellites like the Hubble; Earth observation satellites from companies like Planet Labs, Umbra, and HawkEye 360; GPS; miniature CubeSats for education and research; and military/defense satellites.

Loading next visibility...
Identifier
62274, 2024-237H
Orbit
LEO
Country
Flag of USUS
Related business
Manufacturer
SpaceX/Seattle
Mission
Operational Commercial Communications
Bus & Motor
STARLINK V2MD, Unknown motor
Mass
960 kg wet, ~910 kg dry
Launch date (UTC)
2024-12-08 (2 years ago)
Launch vehicle
FALCON 9
Launch site
Air Force Eastern Test Range (AFETR)
Object type
Payload
Rocket body
Debris
Shape & HBR
Box + 2 Pan, 18.1 m
Radar Cross Section
36.964 m², Large (>1 m²)

Expand to show TLE details & history
Last TLE update: 20 hours ago

TLE from 20 hours ago
0 STARLINK-11504
1 62274U 24237H   26171.01723615  .00236421  00000-0  17838-2 0  9998
2 62274  43.0009 159.9999 0002353 225.4967 134.5708 15.70976644 89091
Epoch: 2026-06-20T00:24Z
TLE epoch observation values (Epoch: 2026-06-20T00:24:49.203Z)
Latitude
-0.00006°
Longitude
-114.44307°
Altitude
356.988 km
Speed
7.696 km/s
True Right ascension
10h 39m 59s
True Declination
0° 00' 00"
Sunlit
Object was in daylight at epoch
Visualization orbit readout
Latitude
Unknown
Longitude
Unknown
Altitude
Unknown
Speed
Unknown
Apparent Right ascension
Unknown
Apparent Declination
Unknown
Sunlit
N/A
Visualization observer readout
Local Sidereal Time
07:23:59
Azimuth
Unknown
Elevation
Unknown
Doppler factor
Unknown
Orbital elements
Apogee altitude
359.671 km
Perigee altitude
356.501 km
Semi-major axis
6,736.223 km
Eccentricity
0.00024
Inclination
43.0009°
RAAN
159.9999°
Arg. of periapsis
225.4967°
True anomaly
134.59°
Mean anomaly
134.5708°
Eccentric anomaly
134.5804°
Mean motion
3.92571 °/min
Orbital period
91.7 mins
BSTAR
0.0017838
Loading maneuver chart data...
Computing Atmospheric mass density...
Loading historical data...
Loading historical data...
Loading historical data...
Loading historical data...
Loading historical data...
Loading historical data...
Loading historical data...

Documentation

Showing up to 5 results
|